Location: Ailly
(50.0793°N, 1.9944°E)
Time: 01:36:05
(UTC+00:00)

IGS 5A - Pass Details

Date: 15 January 2026
Orbit: 551 x 554 km, 97.4° (Epoch: 8 January)

Event Time Altitude Azimuth Distance (km) Brightness Sun altitude
Rises 05:57:03 0° 12° (NNE) 2,742 6.9 -16.7°
Reaches altitude 10° 05:59:11 10° 11° (N) 1,842 6.0 -16.4°
Maximum altitude 06:03:10 80° 286° (WNW) 568 3.2 -15.8°
Drops below altitude 10° 06:07:07 10° 199° (SSW) 1,827 5.9 -15.1°
Sets 06:09:14 0° 198° (SSW) 2,716 6.8 -14.8°
